User: anonymous   Login
Location: ???????
(55.4362°N, 38.1183°E)
Time: 10:55:16
(UTC+00:00)
Language:

USA 215 - Orbit

View from above orbital plane
View from above orbital plane
View from above satellite
View from above satellite

Ground track
Ground track

The orbit data is extracted from the following two-line orbital elements,

1 37162U 10046A   21267.81928937 0.00000000  00000-0  00000-0 0    08
2 37162 123.0041 338.5238 0004437 235.6865 124.3135 13.41431887    06
Epoch (UTC): 24 September 2021 19:39:46
Eccentricity: 0.0004437
inclination: 123.0041°
perigee height: 1100 km
apogee height: 1107 km
right ascension of ascending node: 338.5238°
argument of perigee: 235.6865°
revolutions per day: 13.41431887
mean anomaly at epoch: 124.3135°
orbit number at epoch: 0

The dashed part of the orbit path shows where the satellite is in the earth's shadow,  

DLR